Azamara Journey — 9HOB8 — position and weather

sailwx.info

Track history (hours):
 
Tides and Currents Weather Stations Pressure Air Temp Water Temp Dewpoint Dewpoint Depression Visibility Wind Speed Wind Dir Waves Ship Positions

Azamara Journey

Last reported at 2017-Sep-19 15:12 UTC. Time now 2017-Sep-20 00:35 UTC.
Position N 37°45' W 000°21'.

Type: Ship. MMSI: 256204000.

Date/timePositionNaut miles runAvg speedWind from/ knotsBaromVisibWave heightAir tempDewpointWater temp
2017-Sep-19 15:12N 37°45' W 000°21'314.2
2017-Sep-19 15:00N 37°43' W 000°23'713.9
2017-Sep-19 14:30N 37°37' W 000°27'713.6
2017-Sep-19 14:00N 37°32' W 000°33'713.5
2017-Sep-19 13:30N 37°27' W 000°39'713.6
2017-Sep-19 13:00N 37°23' W 000°46'713.5
2017-Sep-19 12:30N 37°18' W 000°52'22014.3
2017-Sep-18 21:06N 36°06' W 005°12'115.1
2017-Sep-18 21:00N 36°06' W 005°13'4 0.3
2017-Sep-18 10:00N 36°06' W 005°18'4 0.8 290 / 81020.8 20.020.018.0
2017-Sep-18 04:39N 36°03' W 005°21'210.8
2017-Sep-18 04:27N 36°01' W 005°21'4 9.9
2017-Sep-18 04:00N 35°58' W 005°25'50 9.9
2017-Sep-17 23:00N 36°12' W 006°24'71 3.4 300 / 171017.9 20.014.918.0
2017-Sep-17 02:24N 36°33' W 007°48'819.1
2017-Sep-17 02:00N 36°33' W 007°58'1018.6
2017-Sep-17 01:26N 36°32' W 008°10'3 6.1
2017-Sep-17 01:00N 36°30' W 008°12'1151.7 350 / 251015.910.8 17.011.517.0
2017-Sep-17 00:47N 36°32' W 008°26'518.8
2017-Sep-17 00:30N 36°32' W 008°32'1419.0
2017-Sep-16 23:47N 36°32' W 008°49'518.9
2017-Sep-16 23:30N 36°32' W 008°56'1018.8
2017-Sep-16 22:59N 36°33' W 009°08'1618.5
2017-Sep-16 22:07N 36°41' W 009°25'436.1
2017-Sep-16 22:00N 36°42' W 009°30'31066.9 360 / 251010.8 17.017.015.0
2017-Sep-16 21:59N 36°43' W 009°27'4218.4
2017-Sep-16 19:42N 37°25' W 009°31'419.4
2017-Sep-16 19:30N 37°29' W 009°31'1019.7
2017-Sep-16 19:00N 37°39' W 009°29'1019.4
2017-Sep-16 18:31N 37°48' W 009°29'1019.4
2017-Sep-16 18:01N 37°58' W 009°28'1019.4
2017-Sep-16 17:31N 38°08' W 009°26'1019.1
2017-Sep-16 17:01N 38°17' W 009°25'1019.1
2017-Sep-16 16:31N 38°26' W 009°23'917.8
2017-Sep-16 16:01N 38°35' W 009°22'917.1
2017-Sep-16 15:30N 38°41' W 009°14'610.8
2017-Sep-16 14:59N 38°43' W 009°07'0 0.0
2017-Sep-16 14:29N 38°43' W 009°07'0 0.0
2017-Sep-16 13:59N 38°43' W 009°07'0 0.0
2017-Sep-16 13:29N 38°43' W 009°07'0 0.0
2017-Sep-16 12:59N 38°43' W 009°07'0 0.0
2017-Sep-16 12:26N 38°43' W 009°07'0 0.0
2017-Sep-16 11:59N 38°43' W 009°07'0 0.0
2017-Sep-16 11:29N 38°43' W 009°07'0 0.0
2017-Sep-16 10:59N 38°43' W 009°07'0 0.0
2017-Sep-16 10:26N 38°43' W 009°07'0 0.0
2017-Sep-16 09:59N 38°43' W 009°07'0 0.0
2017-Sep-16 09:29N 38°43' W 009°07'0 0.0
2017-Sep-16 08:59N 38°43' W 009°07'0 0.0
2017-Sep-16 08:29N 38°43' W 009°07'0 0.0
2017-Sep-16 07:59N 38°43' W 009°07'0 0.0
2017-Sep-16 07:29N 38°43' W 009°07'0 0.0
2017-Sep-16 06:59N 38°43' W 009°07'0 0.0
2017-Sep-16 06:29N 38°43' W 009°07'0 0.0
2017-Sep-16 05:59N 38°43' W 009°07'0 0.0
2017-Sep-16 05:26N 38°43' W 009°07'0 0.0
2017-Sep-16 04:59N 38°43' W 009°07'0 0.0
2017-Sep-16 04:26N 38°43' W 009°07'0 0.0
2017-Sep-16 03:59N 38°43' W 009°07'0 0.0
2017-Sep-16 03:29N 38°43' W 009°07'0 0.0
2017-Sep-16 02:59N 38°43' W 009°07'0 0.0
2017-Sep-16 02:29N 38°43' W 009°07'0 0.0
2017-Sep-16 01:47N 38°43' W 009°07'0 0.0
2017-Sep-16 01:29N 38°43' W 009°07'0 0.0
2017-Sep-16 00:59N 38°43' W 009°07'0 0.0
2017-Sep-16 00:29N 38°43' W 009°07'1 2.6
2017-Sep-16 00:00N 38°42' W 009°06'119.8 360 / 161015.810.8 15.011.318.0
2017-Sep-15 23:56N 38°43' W 009°07'0 0.0
2017-Sep-15 23:29N 38°43' W 009°07'0 0.0
2017-Sep-15 22:53N 38°43' W 009°07'0 0.0
2017-Sep-15 22:29N 38°43' W 009°07'0 0.0
2017-Sep-15 21:59N 38°43' W 009°07'0 0.0
2017-Sep-15 21:29N 38°43' W 009°07'0 0.0
2017-Sep-15 20:59N 38°43' W 009°07'0 0.0
2017-Sep-15 20:29N 38°43' W 009°07'0 0.0
2017-Sep-15 19:59N 38°43' W 009°07'0 0.0
2017-Sep-15 19:29N 38°43' W 009°07'0 0.0
2017-Sep-15 18:59N 38°43' W 009°07'0 0.0
2017-Sep-15 18:26N 38°43' W 009°07'0 0.0
2017-Sep-15 17:59N 38°43' W 009°07'0 0.0
2017-Sep-15 17:20N 38°43' W 009°07'0 0.0
2017-Sep-15 16:59N 38°43' W 009°07'0 0.0
2017-Sep-15 16:29N 38°43' W 009°07'0 0.0
2017-Sep-15 15:47N 38°43' W 009°07'0 0.0
2017-Sep-15 15:23N 38°43' W 009°07'0 0.0
2017-Sep-15 14:59N 38°43' W 009°07'0 0.0
2017-Sep-15 14:29N 38°43' W 009°07'1 2.6
2017-Sep-15 14:00N 38°42' W 009°06'111.2 360 / 161017.910.8 22.0 6.418.0
2017-Sep-15 13:53N 38°43' W 009°07'0 0.0
2017-Sep-15 13:29N 38°43' W 009°07'0 0.0
2017-Sep-15 12:59N 38°43' W 009°07'0 0.0
2017-Sep-15 12:29N 38°43' W 009°07'0 0.0
2017-Sep-15 11:59N 38°43' W 009°07'0 0.0
2017-Sep-15 11:20N 38°43' W 009°07'0 0.0
2017-Sep-15 10:56N 38°43' W 009°07'0 0.0
2017-Sep-15 10:29N 38°43' W 009°07'0 0.0
2017-Sep-15 09:59N 38°43' W 009°07'0 0.0
2017-Sep-15 09:29N 38°43' W 009°07'0 0.0
2017-Sep-15 08:59N 38°43' W 009°07'0 0.0
2017-Sep-15 08:29N 38°43' W 009°07'0 0.5
2017-Sep-15 08:00N 38°43' W 009°07'1 2.7
2017-Sep-15 07:30N 38°42' W 009°09'4 7.2
2017-Sep-15 07:00N 38°41' W 009°13'611.8
2017-Sep-15 06:30N 38°39' W 009°20'611.9
2017-Sep-15 06:00N 38°37' W 009°27'713.5
2017-Sep-15 05:31N 38°36' W 009°36'713.7
2017-Sep-15 05:00N 38°35' W 009°44'613.0
2017-Sep-15 04:30N 38°34' W 009°53'713.3
2017-Sep-15 04:00N 38°34' W 010°01'510.7
2017-Sep-15 03:31N 38°38' W 010°05'714.0
2017-Sep-15 03:01N 38°45' W 010°06'815.8
2017-Sep-15 02:30N 38°53' W 010°06'917.6
2017-Sep-15 02:00N 39°01' W 010°04'917.7
2017-Sep-15 01:30N 39°10' W 010°01'917.1
2017-Sep-15 01:01N 39°18' W 009°58'916.9
2017-Sep-15 00:30N 39°27' W 009°57'4 7.8
2017-Sep-15 00:00N 39°30' W 009°54'11110.1 360 / 331019.9 5.4 16.012.414.0
2017-Sep-14 13:00N 41°06' W 008°42'72 5.6 350 / 171020.9 2.2 18.016.314.0
2017-Sep-14 00:00N 42°06' W 009°36'2525.3 290 / 111021.9 18.016.320.0
2017-Sep-13 23:00N 41°48' W 009°12'14613.2 270 / 181020.810.8 18.018.0
2017-Sep-13 12:00N 44°00' W 007°48'8314.1 260 / 221018.8 18.018.020.0
2017-Sep-13 06:08N 43°57' W 005°53'215.6
2017-Sep-13 06:00N 43°57' W 005°51'815.0
2017-Sep-13 05:28N 43°56' W 005°39'814.9
2017-Sep-13 04:57N 43°54' W 005°29'714.9
2017-Sep-13 04:31N 43°53' W 005°20'815.0
2017-Sep-13 04:01N 43°52' W 005°09'1614.9
2017-Sep-13 02:54N 43°50' W 004°47'714.8
2017-Sep-13 02:26N 43°49' W 004°37'5616.4
2017-Sep-12 23:00N 43°30' W 003°24'21 1.6 230 / 141018.9 18.014.620.0
2017-Sep-12 10:00N 43°18' W 003°00'56 3.8 230 / 61018.8 5.4 18.014.620.0
2017-Sep-11 19:11N 43°43' W 001°50'2 5.9
2017-Sep-11 18:50N 43°42' W 001°48'2 5.7
2017-Sep-11 18:31N 43°41' W 001°46'3 5.7
2017-Sep-11 18:00N 43°39' W 001°43'3 6.5
2017-Sep-11 17:30N 43°37' W 001°40'4 7.4
2017-Sep-11 17:00N 43°34' W 001°36'3 6.6
2017-Sep-11 16:30N 43°32' W 001°33'2 0.2
2017-Sep-11 01:36N 43°31' W 001°30'4 1.6
2017-Sep-10 23:00N 43°30' W 001°24'0 0.0 240 / 121010.810.8 18.014.619.5
2017-Sep-10 22:00N 43°30' W 001°24'4 4.7 210 / 71011.8 5.4 19.019.012.0
2017-Sep-10 21:06N 43°31' W 001°30'0 0.0
2017-Sep-10 17:32N 43°31' W 001°30'0 0.0
2017-Sep-10 17:30N 43°31' W 001°30'0 0.1
2017-Sep-10 16:58N 43°31' W 001°30'0 0.0
2017-Sep-10 16:28N 43°31' W 001°30'0 0.0
2017-Sep-10 15:58N 43°31' W 001°30'0 0.0
2017-Sep-10 15:28N 43°31' W 001°30'0 0.0
2017-Sep-10 14:58N 43°31' W 001°30'0 0.0
2017-Sep-10 13:58N 43°31' W 001°30'0 0.0
2017-Sep-10 13:28N 43°31' W 001°30'0 0.0
2017-Sep-10 12:58N 43°31' W 001°30'0 0.0
2017-Sep-10 12:28N 43°31' W 001°30'0 0.0
2017-Sep-10 11:58N 43°31' W 001°30'0 0.0
2017-Sep-10 11:28N 43°31' W 001°30'4 8.9
2017-Sep-10 11:00N 43°30' W 001°24'4148.1 1012.8 21.016.122.4
2017-Sep-10 10:58N 43°31' W 001°30'0 0.0
2017-Sep-10 10:28N 43°31' W 001°30'0 0.0
2017-Sep-10 09:58N 43°31' W 001°30'0 0.0
2017-Sep-10 09:28N 43°31' W 001°30'0 0.0
2017-Sep-10 08:58N 43°31' W 001°30'0 0.0
2017-Sep-10 08:28N 43°31' W 001°30'0 0.0
2017-Sep-10 07:55N 43°31' W 001°30'0 0.0
2017-Sep-10 07:28N 43°31' W 001°30'0 0.0
2017-Sep-10 06:58N 43°31' W 001°30'0 0.0
2017-Sep-10 06:28N 43°31' W 001°30'0 0.0
2017-Sep-10 05:58N 43°31' W 001°30'0 0.0
2017-Sep-10 05:28N 43°31' W 001°30'0 0.0
2017-Sep-10 04:58N 43°31' W 001°30'0 0.0
2017-Sep-10 04:28N 43°31' W 001°30'0 0.0
2017-Sep-10 03:58N 43°31' W 001°30'0 0.0
2017-Sep-10 03:28N 43°31' W 001°30'0 0.0
2017-Sep-10 02:58N 43°31' W 001°30'0 0.0
2017-Sep-10 02:28N 43°31' W 001°30'0 0.0
2017-Sep-10 01:58N 43°31' W 001°30'0 0.0
2017-Sep-10 01:28N 43°31' W 001°30'0 0.0
2017-Sep-10 00:58N 43°31' W 001°30'0 0.0
2017-Sep-10 00:25N 43°31' W 001°30'0 0.0
2017-Sep-09 23:58N 43°31' W 001°30'0 0.0
2017-Sep-09 23:28N 43°31' W 001°30'4 8.9
2017-Sep-09 23:00N 43°30' W 001°24'4152.6 1008.810.8 16.014.318.0
2017-Sep-09 22:58N 43°31' W 001°30'0 0.0
2017-Sep-09 22:25N 43°31' W 001°30'0 0.0
2017-Sep-09 21:58N 43°31' W 001°30'0 0.0
2017-Sep-09 21:28N 43°31' W 001°30'0 0.0
2017-Sep-09 20:58N 43°31' W 001°30'0 0.0
2017-Sep-09 20:28N 43°31' W 001°30'0 0.0
2017-Sep-09 19:55N 43°31' W 001°30'0 0.0
2017-Sep-09 19:28N 43°31' W 001°30'0 0.0
2017-Sep-09 18:55N 43°31' W 001°30'0 0.0
2017-Sep-09 18:28N 43°31' W 001°30'0 0.0
2017-Sep-09 17:58N 43°31' W 001°30'0 0.0
2017-Sep-09 17:28N 43°31' W 001°30'0 0.0
2017-Sep-09 16:58N 43°31' W 001°30'0 0.0
2017-Sep-09 16:28N 43°31' W 001°30'0 0.0
2017-Sep-09 15:58N 43°31' W 001°30'0 0.0
2017-Sep-09 15:28N 43°31' W 001°30'  
Track history (hours):
 
Tides and Currents Weather Stations Pressure Air Temp Water Temp Dewpoint Dewpoint Depression Visibility Wind Speed Wind Dir Waves Ship Positions

Azamara Journey

Last reported at 2017-Sep-19 15:12 UTC. Time now 2017-Sep-20 00:35 UTC.
Position N 37°45' W 000°21'.

Type: Ship. MMSI: 256204000.

Date/timePositionNaut miles runAvg speedWind from/ knotsBaromVisibWave heightAir tempDewpointWater temp
2017-Sep-19 15:12N 37°45' W 000°21'314.2
2017-Sep-19 15:00N 37°43' W 000°23'713.9
2017-Sep-19 14:30N 37°37' W 000°27'713.6
2017-Sep-19 14:00N 37°32' W 000°33'713.5
2017-Sep-19 13:30N 37°27' W 000°39'713.6
2017-Sep-19 13:00N 37°23' W 000°46'713.5
2017-Sep-19 12:30N 37°18' W 000°52'22014.3
2017-Sep-18 21:06N 36°06' W 005°12'115.1
2017-Sep-18 21:00N 36°06' W 005°13'4 0.3
2017-Sep-18 10:00N 36°06' W 005°18'4 0.8 290 / 81020.8 20.020.018.0
2017-Sep-18 04:39N 36°03' W 005°21'210.8
2017-Sep-18 04:27N 36°01' W 005°21'4 9.9
2017-Sep-18 04:00N 35°58' W 005°25'50 9.9
2017-Sep-17 23:00N 36°12' W 006°24'71 3.4 300 / 171017.9 20.014.918.0
2017-Sep-17 02:24N 36°33' W 007°48'819.1
2017-Sep-17 02:00N 36°33' W 007°58'1018.6
2017-Sep-17 01:26N 36°32' W 008°10'3 6.1
2017-Sep-17 01:00N 36°30' W 008°12'1151.7 350 / 251015.910.8 17.011.517.0
2017-Sep-17 00:47N 36°32' W 008°26'518.8
2017-Sep-17 00:30N 36°32' W 008°32'1419.0
2017-Sep-16 23:47N 36°32' W 008°49'518.9
2017-Sep-16 23:30N 36°32' W 008°56'1018.8
2017-Sep-16 22:59N 36°33' W 009°08'1618.5
2017-Sep-16 22:07N 36°41' W 009°25'436.1
2017-Sep-16 22:00N 36°42' W 009°30'31066.9 360 / 251010.8 17.017.015.0
2017-Sep-16 21:59N 36°43' W 009°27'4218.4
2017-Sep-16 19:42N 37°25' W 009°31'419.4
2017-Sep-16 19:30N 37°29' W 009°31'1019.7
2017-Sep-16 19:00N 37°39' W 009°29'1019.4
2017-Sep-16 18:31N 37°48' W 009°29'1019.4
2017-Sep-16 18:01N 37°58' W 009°28'1019.4
2017-Sep-16 17:31N 38°08' W 009°26'1019.1
2017-Sep-16 17:01N 38°17' W 009°25'1019.1
2017-Sep-16 16:31N 38°26' W 009°23'917.8
2017-Sep-16 16:01N 38°35' W 009°22'917.1
2017-Sep-16 15:30N 38°41' W 009°14'610.8
2017-Sep-16 14:59N 38°43' W 009°07'0 0.0
2017-Sep-16 14:29N 38°43' W 009°07'0 0.0
2017-Sep-16 13:59N 38°43' W 009°07'0 0.0
2017-Sep-16 13:29N 38°43' W 009°07'0 0.0
2017-Sep-16 12:59N 38°43' W 009°07'0 0.0
2017-Sep-16 12:26N 38°43' W 009°07'0 0.0
2017-Sep-16 11:59N 38°43' W 009°07'0 0.0
2017-Sep-16 11:29N 38°43' W 009°07'0 0.0
2017-Sep-16 10:59N 38°43' W 009°07'0 0.0
2017-Sep-16 10:26N 38°43' W 009°07'0 0.0
2017-Sep-16 09:59N 38°43' W 009°07'0 0.0
2017-Sep-16 09:29N 38°43' W 009°07'0 0.0
2017-Sep-16 08:59N 38°43' W 009°07'0 0.0
2017-Sep-16 08:29N 38°43' W 009°07'0 0.0
2017-Sep-16 07:59N 38°43' W 009°07'0 0.0
2017-Sep-16 07:29N 38°43' W 009°07'0 0.0
2017-Sep-16 06:59N 38°43' W 009°07'0 0.0
2017-Sep-16 06:29N 38°43' W 009°07'0 0.0
2017-Sep-16 05:59N 38°43' W 009°07'0 0.0
2017-Sep-16 05:26N 38°43' W 009°07'0 0.0
2017-Sep-16 04:59N 38°43' W 009°07'0 0.0
2017-Sep-16 04:26N 38°43' W 009°07'0 0.0
2017-Sep-16 03:59N 38°43' W 009°07'0 0.0
2017-Sep-16 03:29N 38°43' W 009°07'0 0.0
2017-Sep-16 02:59N 38°43' W 009°07'0 0.0
2017-Sep-16 02:29N 38°43' W 009°07'0 0.0
2017-Sep-16 01:47N 38°43' W 009°07'0 0.0
2017-Sep-16 01:29N 38°43' W 009°07'0 0.0
2017-Sep-16 00:59N 38°43' W 009°07'0 0.0
2017-Sep-16 00:29N 38°43' W 009°07'1 2.6
2017-Sep-16 00:00N 38°42' W 009°06'119.8 360 / 161015.810.8 15.011.318.0
2017-Sep-15 23:56N 38°43' W 009°07'0 0.0
2017-Sep-15 23:29N 38°43' W 009°07'0 0.0
2017-Sep-15 22:53N 38°43' W 009°07'0 0.0
2017-Sep-15 22:29N 38°43' W 009°07'0 0.0
2017-Sep-15 21:59N 38°43' W 009°07'0 0.0
2017-Sep-15 21:29N 38°43' W 009°07'0 0.0
2017-Sep-15 20:59N 38°43' W 009°07'0 0.0
2017-Sep-15 20:29N 38°43' W 009°07'0 0.0
2017-Sep-15 19:59N 38°43' W 009°07'0 0.0
2017-Sep-15 19:29N 38°43' W 009°07'0 0.0
2017-Sep-15 18:59N 38°43' W 009°07'0 0.0
2017-Sep-15 18:26N 38°43' W 009°07'0 0.0
2017-Sep-15 17:59N 38°43' W 009°07'0 0.0
2017-Sep-15 17:20N 38°43' W 009°07'0 0.0
2017-Sep-15 16:59N 38°43' W 009°07'0 0.0
2017-Sep-15 16:29N 38°43' W 009°07'0 0.0
2017-Sep-15 15:47N 38°43' W 009°07'0 0.0
2017-Sep-15 15:23N 38°43' W 009°07'0 0.0
2017-Sep-15 14:59N 38°43' W 009°07'0 0.0
2017-Sep-15 14:29N 38°43' W 009°07'1 2.6
2017-Sep-15 14:00N 38°42' W 009°06'111.2 360 / 161017.910.8 22.0 6.418.0
2017-Sep-15 13:53N 38°43' W 009°07'0 0.0
2017-Sep-15 13:29N 38°43' W 009°07'0 0.0
2017-Sep-15 12:59N 38°43' W 009°07'0 0.0
2017-Sep-15 12:29N 38°43' W 009°07'0 0.0
2017-Sep-15 11:59N 38°43' W 009°07'0 0.0
2017-Sep-15 11:20N 38°43' W 009°07'0 0.0
2017-Sep-15 10:56N 38°43' W 009°07'0 0.0
2017-Sep-15 10:29N 38°43' W 009°07'0 0.0
2017-Sep-15 09:59N 38°43' W 009°07'0 0.0
2017-Sep-15 09:29N 38°43' W 009°07'0 0.0
2017-Sep-15 08:59N 38°43' W 009°07'0 0.0
2017-Sep-15 08:29N 38°43' W 009°07'0 0.5
2017-Sep-15 08:00N 38°43' W 009°07'1 2.7
2017-Sep-15 07:30N 38°42' W 009°09'4 7.2
2017-Sep-15 07:00N 38°41' W 009°13'611.8
2017-Sep-15 06:30N 38°39' W 009°20'611.9
2017-Sep-15 06:00N 38°37' W 009°27'713.5
2017-Sep-15 05:31N 38°36' W 009°36'713.7
2017-Sep-15 05:00N 38°35' W 009°44'613.0
2017-Sep-15 04:30N 38°34' W 009°53'713.3
2017-Sep-15 04:00N 38°34' W 010°01'510.7
2017-Sep-15 03:31N 38°38' W 010°05'714.0
2017-Sep-15 03:01N 38°45' W 010°06'815.8
2017-Sep-15 02:30N 38°53' W 010°06'917.6
2017-Sep-15 02:00N 39°01' W 010°04'917.7
2017-Sep-15 01:30N 39°10' W 010°01'917.1
2017-Sep-15 01:01N 39°18' W 009°58'916.9
2017-Sep-15 00:30N 39°27' W 009°57'4 7.8
2017-Sep-15 00:00N 39°30' W 009°54'11110.1 360 / 331019.9 5.4 16.012.414.0
2017-Sep-14 13:00N 41°06' W 008°42'72 5.6 350 / 171020.9 2.2 18.016.314.0
2017-Sep-14 00:00N 42°06' W 009°36'2525.3 290 / 111021.9 18.016.320.0
2017-Sep-13 23:00N 41°48' W 009°12'14613.2 270 / 181020.810.8 18.018.0
2017-Sep-13 12:00N 44°00' W 007°48'8314.1 260 / 221018.8 18.018.020.0
2017-Sep-13 06:08N 43°57' W 005°53'215.6
2017-Sep-13 06:00N 43°57' W 005°51'815.0
2017-Sep-13 05:28N 43°56' W 005°39'814.9
2017-Sep-13 04:57N 43°54' W 005°29'714.9
2017-Sep-13 04:31N 43°53' W 005°20'815.0
2017-Sep-13 04:01N 43°52' W 005°09'1614.9
2017-Sep-13 02:54N 43°50' W 004°47'714.8
2017-Sep-13 02:26N 43°49' W 004°37'5616.4
2017-Sep-12 23:00N 43°30' W 003°24'21 1.6 230 / 141018.9 18.014.620.0
2017-Sep-12 10:00N 43°18' W 003°00'56 3.8 230 / 61018.8 5.4 18.014.620.0
2017-Sep-11 19:11N 43°43' W 001°50'2 5.9
2017-Sep-11 18:50N 43°42' W 001°48'2 5.7
2017-Sep-11 18:31N 43°41' W 001°46'3 5.7
2017-Sep-11 18:00N 43°39' W 001°43'3 6.5
2017-Sep-11 17:30N 43°37' W 001°40'4 7.4
2017-Sep-11 17:00N 43°34' W 001°36'3 6.6
2017-Sep-11 16:30N 43°32' W 001°33'2 0.2
2017-Sep-11 01:36N 43°31' W 001°30'4 1.6
2017-Sep-10 23:00N 43°30' W 001°24'0 0.0 240 / 121010.810.8 18.014.619.5
2017-Sep-10 22:00N 43°30' W 001°24'4 4.7 210 / 71011.8 5.4 19.019.012.0
2017-Sep-10 21:06N 43°31' W 001°30'0 0.0
2017-Sep-10 17:32N 43°31' W 001°30'0 0.0
2017-Sep-10 17:30N 43°31' W 001°30'0 0.1
2017-Sep-10 16:58N 43°31' W 001°30'0 0.0
2017-Sep-10 16:28N 43°31' W 001°30'0 0.0
2017-Sep-10 15:58N 43°31' W 001°30'0 0.0
2017-Sep-10 15:28N 43°31' W 001°30'0 0.0
2017-Sep-10 14:58N 43°31' W 001°30'0 0.0
2017-Sep-10 13:58N 43°31' W 001°30'0 0.0
2017-Sep-10 13:28N 43°31' W 001°30'0 0.0
2017-Sep-10 12:58N 43°31' W 001°30'0 0.0
2017-Sep-10 12:28N 43°31' W 001°30'0 0.0
2017-Sep-10 11:58N 43°31' W 001°30'0 0.0
2017-Sep-10 11:28N 43°31' W 001°30'4 8.9
2017-Sep-10 11:00N 43°30' W 001°24'4148.1 1012.8 21.016.122.4
2017-Sep-10 10:58N 43°31' W 001°30'0 0.0
2017-Sep-10 10:28N 43°31' W 001°30'0 0.0
2017-Sep-10 09:58N 43°31' W 001°30'0 0.0
2017-Sep-10 09:28N 43°31' W 001°30'0 0.0
2017-Sep-10 08:58N 43°31' W 001°30'0 0.0
2017-Sep-10 08:28N 43°31' W 001°30'0 0.0
2017-Sep-10 07:55N 43°31' W 001°30'0 0.0
2017-Sep-10 07:28N 43°31' W 001°30'0 0.0
2017-Sep-10 06:58N 43°31' W 001°30'0 0.0
2017-Sep-10 06:28N 43°31' W 001°30'0 0.0
2017-Sep-10 05:58N 43°31' W 001°30'0 0.0
2017-Sep-10 05:28N 43°31' W 001°30'0 0.0
2017-Sep-10 04:58N 43°31' W 001°30'0 0.0
2017-Sep-10 04:28N 43°31' W 001°30'0 0.0
2017-Sep-10 03:58N 43°31' W 001°30'0 0.0
2017-Sep-10 03:28N 43°31' W 001°30'0 0.0
2017-Sep-10 02:58N 43°31' W 001°30'0 0.0
2017-Sep-10 02:28N 43°31' W 001°30'0 0.0
2017-Sep-10 01:58N 43°31' W 001°30'0 0.0
2017-Sep-10 01:28N 43°31' W 001°30'0 0.0
2017-Sep-10 00:58N 43°31' W 001°30'0 0.0
2017-Sep-10 00:25N 43°31' W 001°30'0 0.0
2017-Sep-09 23:58N 43°31' W 001°30'0 0.0
2017-Sep-09 23:28N 43°31' W 001°30'4 8.9
2017-Sep-09 23:00N 43°30' W 001°24'4152.6 1008.810.8 16.014.318.0
2017-Sep-09 22:58N 43°31' W 001°30'0 0.0
2017-Sep-09 22:25N 43°31' W 001°30'0 0.0
2017-Sep-09 21:58N 43°31' W 001°30'0 0.0
2017-Sep-09 21:28N 43°31' W 001°30'0 0.0
2017-Sep-09 20:58N 43°31' W 001°30'0 0.0
2017-Sep-09 20:28N 43°31' W 001°30'0 0.0
2017-Sep-09 19:55N 43°31' W 001°30'0 0.0
2017-Sep-09 19:28N 43°31' W 001°30'0 0.0
2017-Sep-09 18:55N 43°31' W 001°30'0 0.0
2017-Sep-09 18:28N 43°31' W 001°30'0 0.0
2017-Sep-09 17:58N 43°31' W 001°30'0 0.0
2017-Sep-09 17:28N 43°31' W 001°30'0 0.0
2017-Sep-09 16:58N 43°31' W 001°30'0 0.0
2017-Sep-09 16:28N 43°31' W 001°30'0 0.0
2017-Sep-09 15:58N 43°31' W 001°30'0 0.0
2017-Sep-09 15:28N 43°31' W 001°30'  

Dump ship's entire track history